TimeMST,TemperatureF,Dew PointF,Humidity,Sea Level PressureIn,VisibilityMPH,Wind Direction,Wind SpeedMPH,Gust SpeedMPH,PrecipitationIn,Events,Conditions,WindDirDegrees,DateUTC
12:52 AM,41.0,32.0,70,29.36,10.0,Calm,Calm,-,N/A,,Clear,0,2013-11-16 07:52:00
1:52 AM,37.9,28.9,70,29.35,10.0,SSE,3.5,-,N/A,,Clear,160,2013-11-16 08:52:00
2:52 AM,37.9,28.0,68,29.34,10.0,West,3.5,-,N/A,,Clear,260,2013-11-16 09:52:00
3:52 AM,35.1,26.1,70,29.36,10.0,WSW,6.9,-,N/A,,Clear,250,2013-11-16 10:52:00
4:52 AM,32.0,24.1,73,29.37,10.0,WSW,5.8,-,N/A,,Clear,250,2013-11-16 11:52:00
5:52 AM,30.0,21.9,72,29.39,10.0,Calm,Calm,-,N/A,,Clear,0,2013-11-16 12:52:00
6:52 AM,32.0,21.9,66,29.39,10.0,Calm,Calm,-,N/A,,Clear,0,2013-11-16 13:52:00
7:52 AM,36.0,21.9,57,29.39,10.0,Variable,4.6,-,N/A,,Clear,0,2013-11-16 14:52:00
8:52 AM,39.9,19.9,45,29.35,10.0,West,12.7,19.6,N/A,,Clear,270,2013-11-16 15:52:00
9:52 AM,42.1,19.9,41,29.34,10.0,West,19.6,25.3,N/A,,Clear,270,2013-11-16 16:52:00
10:52 AM,45.0,19.9,37,29.34,10.0,West,13.8,21.9,N/A,,Clear,270,2013-11-16 17:52:00
11:52 AM,44.1,21.0,40,29.33,10.0,West,11.5,-,N/A,,Clear,270,2013-11-16 18:52:00
12:52 PM,45.0,23.0,42,29.32,10.0,West,6.9,-,N/A,,Clear,260,2013-11-16 19:52:00
1:52 PM,46.9,23.0,39,29.30,10.0,West,10.4,-,N/A,,Clear,280,2013-11-16 20:52:00
2:52 PM,46.9,26.1,44,29.31,10.0,SW,5.8,-,N/A,,Mostly Cloudy,220,2013-11-16 21:52:00
3:52 PM,48.0,24.1,39,29.33,10.0,West,6.9,-,N/A,,Clear,260,2013-11-16 22:52:00
4:52 PM,39.9,25.0,55,29.38,10.0,SW,6.9,-,N/A,,Clear,230,2013-11-16 23:52:00
5:52 PM,41.0,24.1,51,29.40,10.0,West,6.9,-,N/A,,Clear,270,2013-11-17 00:52:00
6:52 PM,37.9,25.0,60,29.41,10.0,SW,9.2,-,N/A,,Clear,220,2013-11-17 01:52:00
7:52 PM,37.0,25.0,62,29.41,10.0,SSW,5.8,-,N/A,,Clear,200,2013-11-17 02:52:00
8:52 PM,37.0,25.0,62,29.41,10.0,Calm,Calm,-,N/A,,Clear,0,2013-11-17 03:52:00
9:52 PM,35.1,24.1,64,29.41,10.0,WSW,4.6,-,N/A,,Clear,250,2013-11-17 04:52:00
10:52 PM,36.0,23.0,59,29.41,10.0,SW,3.5,-,N/A,,Clear,220,2013-11-17 05:52:00
11:52 PM,35.1,24.1,64,29.42,10.0,SW,4.6,-,N/A,,Clear,220,2013-11-17 06:52:00